TimeCDT,TemperatureF,Dew PointF,Humidity,Sea Level PressureIn,VisibilityMPH,Wind Direction,Wind SpeedMPH,Gust SpeedMPH,PrecipitationIn,Events,Conditions,WindDirDegrees,DateUTC
12:15 AM,61.2,61.2,100,30.16,7.0,Calm,Calm,-,N/A,,Clear,0,2013-09-05 05:15:00
12:35 AM,61.3,61.3,100,30.16,10.0,Calm,Calm,-,N/A,,Clear,0,2013-09-05 05:35:00
12:55 AM,60.8,60.8,100,30.16,7.0,Calm,Calm,-,N/A,,Clear,0,2013-09-05 05:55:00
1:15 AM,60.4,60.4,100,30.16,7.0,Calm,Calm,-,N/A,,Clear,0,2013-09-05 06:15:00
1:35 AM,60.3,60.3,100,30.16,7.0,Calm,Calm,-,N/A,,Clear,0,2013-09-05 06:35:00
1:55 AM,59.9,59.9,100,30.16,7.0,Calm,Calm,-,N/A,,Clear,0,2013-09-05 06:55:00
2:15 AM,59.5,59.5,100,30.16,7.0,Calm,Calm,-,N/A,,Clear,0,2013-09-05 07:15:00
2:35 AM,59.0,59.0,100,30.16,7.0,Calm,Calm,-,N/A,,Clear,0,2013-09-05 07:35:00
2:55 AM,58.6,58.6,100,30.16,7.0,Calm,Calm,-,N/A,,Clear,0,2013-09-05 07:55:00
3:15 AM,59.0,59.0,100,30.16,7.0,Calm,Calm,-,N/A,,Clear,0,2013-09-05 08:15:00
3:35 AM,58.5,58.5,100,30.16,5.0,Calm,Calm,-,N/A,,Clear,0,2013-09-05 08:35:00
3:55 AM,58.5,58.5,100,30.16,5.0,Calm,Calm,-,N/A,,Clear,0,2013-09-05 08:55:00
4:15 AM,58.3,58.3,100,30.16,7.0,Calm,Calm,-,N/A,,Clear,0,2013-09-05 09:15:00
4:35 AM,58.1,58.1,100,30.16,5.0,Calm,Calm,-,N/A,,Clear,0,2013-09-05 09:35:00
4:55 AM,58.3,58.3,100,30.17,5.0,Calm,Calm,-,N/A,,Clear,0,2013-09-05 09:55:00
5:15 AM,58.1,58.1,100,30.18,5.0,Calm,Calm,-,N/A,,Clear,0,2013-09-05 10:15:00
5:35 AM,57.9,57.9,100,30.18,5.0,Calm,Calm,-,N/A,,Clear,0,2013-09-05 10:35:00
5:55 AM,57.2,57.2,100,30.18,7.0,Calm,Calm,-,N/A,,Clear,0,2013-09-05 10:55:00
6:15 AM,56.8,56.8,100,30.19,7.0,Calm,Calm,-,N/A,,Clear,0,2013-09-05 11:15:00
6:35 AM,56.7,56.7,100,30.19,7.0,Calm,Calm,-,N/A,,Clear,0,2013-09-05 11:35:00
6:55 AM,57.0,57.0,100,30.19,4.0,Calm,Calm,-,N/A,,Clear,0,2013-09-05 11:55:00
7:15 AM,57.7,57.7,100,30.20,4.0,Calm,Calm,-,N/A,,Clear,0,2013-09-05 12:15:00
7:35 AM,58.3,58.3,100,30.20,7.0,Calm,Calm,-,N/A,,Clear,0,2013-09-05 12:35:00
7:55 AM,60.3,60.3,100,30.20,5.0,Calm,Calm,-,N/A,,Clear,0,2013-09-05 12:55:00
8:15 AM,63.0,63.0,100,30.20,7.0,Calm,Calm,-,N/A,,Clear,0,2013-09-05 13:15:00
8:35 AM,66.2,64.8,95,30.20,10.0,Calm,Calm,-,N/A,,Clear,0,2013-09-05 13:35:00
8:55 AM,69.1,65.1,87,30.21,10.0,Calm,Calm,-,N/A,,Clear,0,2013-09-05 13:55:00
9:15 AM,72.0,65.3,79,30.21,10.0,Calm,Calm,-,N/A,,Clear,0,2013-09-05 14:15:00
9:35 AM,73.6,64.2,72,30.21,10.0,Calm,Calm,-,N/A,,Clear,0,2013-09-05 14:35:00
9:55 AM,75.6,63.5,66,30.22,10.0,Calm,Calm,-,N/A,,Clear,0,2013-09-05 14:55:00
10:15 AM,76.6,62.1,61,-9999,10.0,Calm,Calm,-,N/A,,Clear,0,2013-09-05 15:15:00
10:35 AM,78.6,62.2,57,30.22,10.0,Calm,Calm,-,N/A,,Clear,0,2013-09-05 15:35:00
10:55 AM,79.2,61.0,54,30.22,10.0,Calm,Calm,-,N/A,,Clear,0,2013-09-05 15:55:00
11:15 AM,79.7,62.4,55,30.23,10.0,Calm,Calm,-,N/A,,Clear,0,2013-09-05 16:15:00
11:35 AM,80.2,62.4,54,30.23,10.0,NE,3.5,-,N/A,,Clear,40,2013-09-05 16:35:00
11:55 AM,81.5,62.4,52,30.23,10.0,ENE,3.5,-,N/A,,Clear,70,2013-09-05 16:55:00
12:15 PM,81.3,62.6,53,30.22,10.0,SSE,3.5,-,N/A,,Clear,160,2013-09-05 17:15:00
12:35 PM,82.4,63.5,53,30.22,10.0,Calm,Calm,-,N/A,,Clear,0,2013-09-05 17:35:00
12:55 PM,82.4,63.0,52,30.21,10.0,Calm,Calm,-,N/A,,Clear,0,2013-09-05 17:55:00
1:15 PM,83.3,63.0,50,30.21,10.0,NE,3.5,-,N/A,,Clear,50,2013-09-05 18:15:00
1:35 PM,83.1,63.1,51,30.20,10.0,SE,4.6,-,N/A,,Clear,140,2013-09-05 18:35:00
1:55 PM,83.5,62.6,49,30.19,10.0,Calm,Calm,-,N/A,,Clear,0,2013-09-05 18:55:00
2:15 PM,83.5,62.1,48,30.19,10.0,Calm,Calm,-,N/A,,Clear,0,2013-09-05 19:15:00
2:35 PM,85.1,62.8,47,30.18,10.0,Calm,Calm,-,N/A,,Clear,0,2013-09-05 19:35:00
2:55 PM,84.6,61.9,46,30.18,10.0,Calm,Calm,-,N/A,,Clear,0,2013-09-05 19:55:00
3:15 PM,84.6,62.2,47,30.17,10.0,Calm,Calm,-,N/A,,Clear,0,2013-09-05 20:15:00
3:35 PM,85.3,62.8,47,30.17,10.0,SE,3.5,-,N/A,,Clear,140,2013-09-05 20:35:00
3:55 PM,85.5,61.5,44,30.17,10.0,Calm,Calm,-,N/A,,Clear,0,2013-09-05 20:55:00
4:15 PM,85.3,61.3,44,30.17,10.0,ENE,4.6,-,N/A,,Clear,60,2013-09-05 21:15:00
4:35 PM,85.5,61.2,44,30.17,10.0,NE,3.5,-,N/A,,Clear,50,2013-09-05 21:35:00
4:55 PM,85.1,58.8,41,30.16,10.0,Calm,Calm,-,N/A,,Clear,0,2013-09-05 21:55:00
5:15 PM,85.3,60.3,43,30.16,10.0,Calm,Calm,-,N/A,,Clear,0,2013-09-05 22:15:00
5:35 PM,84.6,60.6,44,30.16,10.0,Calm,Calm,-,N/A,,Clear,0,2013-09-05 22:35:00
5:55 PM,84.6,62.8,48,30.16,10.0,Calm,Calm,-,N/A,,Clear,0,2013-09-05 22:55:00
6:15 PM,82.8,65.5,56,30.15,10.0,Calm,Calm,-,N/A,,Clear,0,2013-09-05 23:15:00
6:35 PM,81.1,65.7,59,30.15,10.0,Calm,Calm,-,N/A,,Clear,0,2013-09-05 23:35:00
6:55 PM,77.9,68.0,71,30.15,10.0,Calm,Calm,-,N/A,,Clear,0,2013-09-05 23:55:00
7:15 PM,74.1,68.0,81,30.15,10.0,Calm,Calm,-,N/A,,Clear,0,2013-09-06 00:15:00
7:35 PM,71.4,68.2,89,30.15,10.0,Calm,Calm,-,N/A,,Clear,0,2013-09-06 00:35:00
7:55 PM,70.0,67.8,93,30.16,10.0,Calm,Calm,-,N/A,,Clear,0,2013-09-06 00:55:00
8:15 PM,68.9,68.0,97,30.16,10.0,Calm,Calm,-,N/A,,Clear,0,2013-09-06 01:15:00
8:35 PM,68.0,67.6,99,30.17,10.0,Calm,Calm,-,N/A,,Clear,0,2013-09-06 01:35:00
8:55 PM,67.6,67.3,99,30.17,10.0,Calm,Calm,-,N/A,,Clear,0,2013-09-06 01:55:00
9:15 PM,66.6,66.6,100,30.18,10.0,Calm,Calm,-,N/A,,Clear,0,2013-09-06 02:15:00
9:35 PM,66.2,66.2,100,30.18,10.0,Calm,Calm,-,N/A,,Clear,0,2013-09-06 02:35:00
9:55 PM,66.2,66.2,100,30.18,7.0,Calm,Calm,-,N/A,,Clear,0,2013-09-06 02:55:00
10:15 PM,65.8,65.8,100,30.18,7.0,Calm,Calm,-,N/A,,Clear,0,2013-09-06 03:15:00
10:35 PM,65.8,65.8,100,30.18,7.0,Calm,Calm,-,N/A,,Clear,0,2013-09-06 03:35:00
10:55 PM,65.8,65.8,100,30.18,7.0,Calm,Calm,-,N/A,,Clear,0,2013-09-06 03:55:00
11:15 PM,65.3,65.3,100,30.19,7.0,Calm,Calm,-,N/A,,Clear,0,2013-09-06 04:15:00
11:35 PM,64.4,64.4,100,30.18,7.0,Calm,Calm,-,N/A,,Clear,0,2013-09-06 04:35:00
11:55 PM,63.7,63.7,100,30.19,7.0,Calm,Calm,-,N/A,,Clear,0,2013-09-06 04:55:00